Lid_Strength_Index
9 9 8 8 8 7 7 7 7 7 6 5 5 5 6 7 7 7 8 8 8 8 8 8 8 8 8 9 9 9 9 8 8 8 9 9 10 10 9 9 9 9 9
9 9 9 9 8 8 8 8 8 8 7 7 7 8 8 8 9 9 9 9 9 9 9 9 9 9 10 10 10 10 10 10 10 10 11 11 10 10 10 10 9 8 9
9 8 8 8 9 8 8 8 8 8 9 9 9 8 8 9 9 9 9 9 9 9 10 10 10 10 11 10 10 10 10 10 11 12 12 11 11 11 10 10 10 10 9
9 8 8 8 8 8 8 8 8 8 7 8 8 8 8 8 9 9 10 10 10 10 10 10 10 10 10 10 10 11 11 12 12 13 13 13 12 12 12 12 11 11 10
8 8 7 7 7 7 7 7 7 8 8 8 9 9 9 9 9 9 9 10 10 10 10 11 10 11 10 10 10 11 11 12 12 13 13 13 13 14 11 10 11 11 11
8 8 8 8 8 8 8 8 8 8 9 9 9 10 10 10 9 9 9 10 11 11 11 11 11 13 12 10 9 9 10 11 11 12 11 11 11 11 10 11 11 12 13
8 8 9 9 9 9 9 9 9 9 9 9 10 10 10 10 9 9 9 11 11 11 12 12 12 11 12 11 9 9 9 8 8 10 11 11 11 10 10 11 11 12 12
9 9 9 10 10 10 10 10 9 9 9 9 10 10 10 10 8 8 9 10 11 12 12 12 12 12 11 11 11 11 11 11 11 11 11 10 9 9 9 10 10 11 10
10 10 11 11 11 11 10 10 10 10 10 10 10 10 10 10 8 8 9 11 11 11 12 12 12 12 10 9 11 11 12 11 9 8 8 8 9 8 8 9 11 11 12
10 11 11 11 11 11 11 11 10 10 10 11 10 10 11 10 9 8 8 11 11 12 12 12 12 12 9 8 11 12 13 12 12 11 10 9 9 9 8 9 10 11 12
11 11 11 11 11 11 11 11 11 10 10 10 10 10 10 11 10 8 7 10 11 12 13 12 12 9 8 8 8 11 11 10 9 10 11 10 10 10 10 10 10 10 12
12 12 12 12 11 11 13 12 12 12 12 12 12 12 12 11 10 8 7 8 9 12 12 12 12 9 8 8 9 9 9 9 10 11 11 11 11 11 10 10 10 10 10
15 15 15 14 13 12 13 13 14 13 14 13 13 14 13 12 12 8 7 7 7 11 11 10 9 9 9 10 10 10 11 11 12 13 13 12 12 12 11 12 13 13 13
18 16 15 15 15 14 13 13 14 15 14 13 14 15 14 14 13 13 13 13 11 11 10 12 10 10 10 10 11 11 12 12 13 14 14 13 14 16 16 16 18 18 21
16 16 16 15 17 16 14 13 13 12 12 16 17 16 17 17 13 11 11 13 13 11 13 13 13 12 12 13 14 16 17 18 19 17 18 20 20 20 21 21 22 25 24
17 17 17 17 18 17 17 16 10 9 9 8 9 12 13 10 10 9 10 10 10 10 12 13 14 15 16 19 22 20 19 19 19 20 22 22 22 22 22 23 24 26 27
20 18 18 17 17 18 18 18 18 15 9 9 9 9 10 9 10 10 11 11 12 14 17 18 18 19 20 21 22 21 22 22 22 22 23 23 23 24 24 25 25 27 28
23 20 21 20 20 20 19 19 20 20 19 18 11 10 10 10 10 11 12 15 19 19 20 20 21 21 22 23 23 24 24 23 24 24 24 25 25 26 26 26 26 27 28
21 22 22 22 22 21 21 22 21 22 21 20 18 14 13 11 13 13 15 20 21 22 22 22 22 23 23 26 27 27 28 27 28 29 29 28 26 28 28 29 28 26 26
24 21 21 22 23 22 21 19 17 19 21 20 21 21 19 19 21 20 21 22 22 23 24 25 26 27 28 29 29 30 30 30 30 30 30 30 28 31 29 30 30 29 29
19 16 15 15 16 16 15 16 15 19 23 23 23 21 15 22 23 22 24 27 27 27 27 27 25 29 31 31 31 31 31 30 31 31 30 30 32 31 31 31 30 31 31
25 25 23 22 19 19 19 19 19 20 20 21 21 17 17 23 24 25 27 28 29 29 29 25 27 30 30 30 31 30 30 30 30 31 31 31 31 30 30 30 30 30 29
27 27 27 27 26 24 24 25 23 22 22 22 21 23 24 25 25 27 29 29 30 29 29 31 32 31 29 29 30 30 28 28 29 31 31 31 31 31 32 31 30 30 30
30 29 28 27 26 25 23 23 23 22 23 23 23 24 24 26 28 30 31 32 32 33 35 34 34 32 32 31 31 30 30 30 32 32 32 31 31 31 30 31 30 29 29
28 27 25 25 25 24 22 22 22 22 23 23 24 27 30 30 31 32 32 34 34 33 33 33 34 33 32 31 29 26 23 25 29 29 33 32 30 31 32 32 32 31 30
27 26 26 26 25 24 23 23 23 23 24 26 27 30 30 31 32 32 32 32 32 32 32 33 33 32 32 31 30 21 17 19 26 28 33 31 28 30 32 33 30 32 31